Regional Weather Roundup
Issued by NWS

Home | Current Version | Previous Version | Graphics & Text | Print | Product List | Glossary On
Versions: 1 2 3 4 5 6 7 8 9 10 11 12 13 14 15 16 17 18 19 20 21 22 23 24 25 26 27 28 29 30 31 32 33 34 35 36 37 38 39 40 41 42 43 44 45 46 47 48 49 50
000
ASUS45 KABQ 210001
RWRNM
WEATHER ROUNDUP FOR NEW MEXICO
NATIONAL WEATHER SERVICE ALBUQUERQUE NM
600 PM MDT SAT SEP 20 2014

NOTE: "FAIR" MEANS FEW OR NO CLOUDS BELOW 12,000 FEET AGL WITH NO
       SIGNIFICANT WEATHER OR OBSTRUCTIONS TO VISION.

      THIS PRODUCT IS RELEASED AS TWO VERSIONS.  ONE VERSION NEAR
      THE TOP OF THE HOUR CONTAINING PRELIMINARY DATA FROM ALBUQUERQUE
      AND OTHER STATIONS.  A FINAL VERSION WITH ADDITIONAL DATA IS
      ISSUED ABOUT 10 MINUTES AFTER THE HOUR.

NMZ501-503-504-510>518-210100-
NORTHWEST PLATEAU/NORTHCENTRAL MOUNTAINS

CITY           SKY/WX    TMP DP  RH WIND       PRES   REMARKS
FARMINGTON     SUNNY     89  37  16 CALM      30.05F
6HR MIN TEMP:  79; 6HR MAX TEMP:  89;

LOS ALAMOS     CLOUDY    75  39  27 SE12      30.25R
SANTA FE       MOSUNNY   83  45  26 SE22G29   30.16R
6HR MIN TEMP:  79; 6HR MAX TEMP:  89;

TAOS           MOSUNNY   79  39  24 SE17G23   30.26R
ANGEL FIRE     FAIR      70  41  34 E16G25    30.40R

$$
NMZ402-403-502-505>509-210100-
WESTCENTRAL MOUNTAINS/SOUTHWEST MOUNTAINS

CITY           SKY/WX    TMP DP  RH WIND       PRES   REMARKS
GALLUP         PTSUNNY   85  35  16 E13       30.13S
6HR MIN TEMP:  81; 6HR MAX TEMP:  88;

GRANTS         MOSUNNY   81  43  26 SE9       30.18S
SILVER CITY    MOSUNNY   81  57  44 S6        30.11F

$$
NMZ407-409-411-412-210100-
SOUTHERN DESERTS

CITY           SKY/WX    TMP DP  RH WIND       PRES   REMARKS
LORDSBURG      FAIR      84  61  45 MISG      30.01S
DEMING         MOSUNNY   85  59  41 CALM      30.00F
6HR MIN TEMP:  79; 6HR MAX TEMP:  87;

LAS CRUCES     SUNNY     84  59  42 SE7       30.03S
HOLLOMAN AFB   MOSUNNY   82  64  54 SE2       30.01S
ALAMOGORDO     MOSUNNY   82  63  51 S6        30.03S
T OR C         PTSUNNY   85  56  37 NE10      30.04F
6HR MIN TEMP:  78; 6HR MAX TEMP:  87;


$$
NMZ519>523-210100-
CENTRAL VALLEYS/CENTRAL HIGHLANDS

CITY           SKY/WX    TMP DP  RH WIND       PRES   REMARKS
ALBUQUERQUE    MOSUNNY   87  45  23 SE21G28   30.09S
6HR MIN TEMP:  78; 6HR MAX TEMP:  91;

DOUBLE EAGLE   MOSUNNY   86  41  20 SE17      30.14R
CLINES CORNERS SUNNY     73  49  42 E20G29    30.25R
6HR MIN TEMP:  73; 6HR MAX TEMP:  80;

BELEN          FAIR      84  48  28 SE15      30.09R
6HR MIN TEMP:  78; 6HR MAX TEMP:  89;

SOCORRO        FAIR      86  53  32 CALM      30.05F
6HR MIN TEMP:  77; 6HR MAX TEMP:  86;


$$
NMZ524>526-539-540-210100-
SOUTHCENTRAL MOUNTAINS

CITY           SKY/WX    TMP DP  RH WIND       PRES   REMARKS
RUIDOSO        NOT AVBL

$$
NMZ527>531-210100-
NORTHEAST HIGHLANDS/NORTHEAST PLAINS

CITY           SKY/WX    TMP DP  RH WIND       PRES   REMARKS
LAS VEGAS      MOSUNNY   74  51  44 E12       30.27R
6HR MIN TEMP:  74; 6HR MAX TEMP:  84;

RATON          MOSUNNY   79  44  28 E15       30.23R
6HR MIN TEMP:  78; 6HR MAX TEMP:  85;

CLAYTON        CLEAR     81  55  40 NE9       30.15R
6HR MIN TEMP:  81; 6HR MAX TEMP:  85;


$$
NMZ532>537-210100-
EASTCENTRAL PLAINS

CITY           SKY/WX    TMP DP  RH WIND       PRES   REMARKS
TUCUMCARI      SUNNY     83  57  41 SE12      30.07R
6HR MIN TEMP:  81; 6HR MAX TEMP:  87;

CANNON AFB     MOSUNNY   78  62  58 E8        30.09S
6HR MIN TEMP:  72; 6HR MAX TEMP:  80;

CLOVIS AIRPORT   N/A     77  64  65 E12       30.11S

$$
NMZ028-029-538-210100-
SOUTHEAST PLAINS

CITY           SKY/WX    TMP DP  RH WIND       PRES   REMARKS
ROSWELL        SUNNY     82  64  54 W5        30.03S
6HR MIN TEMP:  76; 6HR MAX TEMP:  85;

CARLSBAD       MOSUNNY   81  74  79 N8        29.99S
6HR MIN TEMP:  74; 6HR MAX TEMP:  85;

HOBBS          PTSUNNY   79  64  61 N6        30.04S


$$



USA.gov is the U.S. government's official web portal to all federal, state and local government web resources and services.